COSMOS 1867 (18187 NORAD) Tracking and Keplerian Element Data

This shows tracking and keplerian element data for the satellite.

Feedback or suggestion? Click here.




ElementValue
Catalog18187
NameCOSMOS 1867
Epoch Orbit90732
Epoch Day12.95099994
Epoch Year2024
RAAN349.5743
Inclination65.0116
Eccentricity0.0019005
Argument of Perigee280.7116
Mean Anonmoly79.1828
Mean Motion14.31259926
Decay Rate4.2E-07
L11 18187U 87060A 24012.95099994 .00000042 00000+0 53710-4 0 9994
L22 18187 65.0116 349.5743 0019005 280.7116 79.1828 14.31259926907329



Live tracking and technical data element details for COSMOS 1867 (NORAD 18187). COSMOS 1867 can be tracked NOW for your location showing map with azimuth and elevation plus other details from your city location.







IsCatalogInMostPopularTable: catalog: 18187, numindb: 372
Update: records affected: 1



GetName: 18187 COSMOS 1867

Hit Count: updated at: Mon, 15 Apr 2024 00:40:30 GMT